Location: Ingoldesthorpe
(52.8667°N, 0.5167°E)
Time: 03:56:56
(UTC+00:00)

SL-24 DEB - Pass Details

Date: 19 May 2025
Orbit: 639 x 664 km, 92.0° (Epoch: 13 June)

Event Time Altitude Azimuth Distance (km) Brightness Sun altitude
Exits shadow 21:13:49 12° 155° (SSE) 1,950 6.0 -9.3°
Maximum altitude 21:17:57 54° 79° (E) 796 4.5 -9.7°
Drops below altitude 10° 21:22:24 10° 3° (N) 2,083 7.6 -10.1°
Sets 21:24:42 0° 359° (N) 3,004 8.6 -10.3°
